Flag for Brazil Weather past 2 weeks in Santos, São Paulo, Brazil

Now
63 °F

Sunny.


Feels Like: 63 °F
Forecast: 61 / 71 °F
Wind: 7 mph from Northwest

Location: Sao Paulo Airport

Current Time: Jul 4, 2015 at 7:30:03 AM

Latest Report: Jul 4, 2015 at 7:00 AM


Visibility: 10 mi

Pressure: 30.01 "Hg

Humidity: 83%

Dew point: 57 °F

Location of SantosLocation

Historic Weather in Santos — Graph

°F

Santos temperature yesterday

Maximum temperature yesterday: 66 °F (at 4:00 PM)
Minimum temperature yesterday: 59 °F (at 5:00 AM)
Average temperature yesterday: 63 °F

Past Weeks' High & Low Weather Summary

 TemperatureHumidityPressure
High77 °F (Jun 23, 1:00 PM)94% (Jun 19, 12:00 PM)30.54 "Hg (Jun 19, 12:00 PM)
Low54 °F (Jun 20, 4:00 AM)34% (Jun 22, 1:00 PM)29.98 "Hg (Jul 3, 3:00 PM)
Average62 °F75%30.29 "Hg
* Reported Jun 19 6:00 AM — Jul 4 6:00 AM, Santos, Weather by CustomWeather, © 2015

Note: Actual official high and low records may vary slightly from our data, if they occured in-between our weather recording intervals... More about our weather records

Advertising

Santos weather history for previous 24 hours

 ConditionsComfort  
Time TempWeatherWind HumidityBarometerVisibility
6:00 AM
Sat, Jul 4
61 °FSunny.6 mph88%29.98 "Hg10 mi
5:00 AM63 °FClear.7 mph88%29.98 "Hg10 mi
4:00 AM63 °FClear.10 mph88%29.98 "Hg10 mi
3:00 AM63 °FPassing clouds.7 mph88%29.98 "HgN/A
2:00 AM63 °FClear.10 mph88%29.98 "Hg10 mi
1:00 AM63 °FLight rain. Overcast.13 mph83%29.98 "HgN/A
12:00 AM63 °FLight rain. Overcast.15 mph83%30.01 "HgN/A
11:00 PM
Fri, Jul 3
63 °FLight rain. Clear.10 mph88%30.04 "HgN/A
10:00 PM63 °FLight rain. Passing clouds.14 mph88%30.04 "Hg4 mi
9:00 PM63 °FLight rain. Mostly cloudy.12 mph88%30.01 "Hg6 mi
8:00 PM63 °FPassing clouds.13 mph88%30.01 "HgN/A
7:00 PM64 °FPassing clouds.14 mph83%30.01 "HgN/A
6:00 PM64 °FClear.10 mph83%29.98 "Hg10 mi
5:00 PM64 °FClear.10 mph83%29.98 "Hg10 mi
4:00 PM66 °FSunny.9 mph78%29.98 "Hg10 mi
3:00 PM64 °FScattered clouds.13 mph83%29.98 "HgN/A
2:00 PM64 °FLight rain. Broken clouds.13 mph83%30.04 "HgN/A
1:00 PM63 °FLight rain. Mostly cloudy.2 mph94%30.07 "Hg3 mi
12:00 PM63 °FRain. Mostly cloudy.3 mph94%30.09 "Hg3 mi
11:00 AM63 °FRain. More clouds than sun.2 mph88%30.09 "Hg3 mi
10:00 AM63 °FLight rain. More clouds than sun.6 mph88%30.09 "Hg5 mi
9:00 AM63 °FLight rain. Mostly cloudy.5 mph88%30.09 "Hg6 mi
8:00 AM61 °FLight rain. Mostly cloudy.2 mph94%30.09 "Hg5 mi
7:00 AM61 °FLight rain. Mostly cloudy.5 mph88%30.07 "Hg6 mi
Weather by CustomWeather, © 2015

See weather overviewHow to use our weather pages